Theta_e
316 315 312 313 312 312 312 312 313 313 313 318 316 316 313 312 312 311 310 312 312 317 316 317 324 325 323 322 323 323 321 319 321 323 322 320 318 316 314 313 313 314 315 315
313 319 312 312 313 311 311 312 313 314 314 312 312 313 312 310 311 310 310 309 311 317 313 313 315 318 319 319 319 318 317 316 319 321 320 318 316 313 312 312 312 312 312 312
313 314 312 312 312 313 312 312 311 313 314 311 311 309 309 308 307 309 309 309 308 315 313 310 312 314 315 316 316 315 314 315 318 320 320 318 313 310 308 308 309 308 309 308
314 311 314 313 313 312 313 310 312 313 308 312 309 315 306 306 307 307 308 308 307 313 312 310 310 311 312 313 313 313 312 314 318 320 320 319 314 310 308 308 307 307 306 305
314 312 313 314 313 311 312 310 309 308 310 307 310 308 305 305 307 307 306 305 305 305 311 310 308 309 309 309 309 310 310 312 316 317 317 316 313 311 308 307 306 305 303 301
313 311 312 311 310 310 309 310 309 310 309 308 306 307 303 304 306 307 308 307 306 306 307 307 308 308 306 307 307 307 308 310 314 316 315 315 314 310 307 304 304 302 299 296
313 312 311 311 313 312 309 310 305 306 305 310 307 304 306 302 304 306 307 306 305 305 303 302 301 303 304 304 305 306 307 310 314 316 315 315 313 310 308 305 304 300 296 295
312 314 313 312 313 312 308 309 307 311 309 307 307 308 307 306 306 306 306 305 305 304 302 300 301 302 303 303 303 304 306 309 311 312 312 310 309 307 305 304 301 297 295 294
311 313 311 311 312 311 311 311 306 308 300 308 307 305 304 307 308 307 307 306 305 304 302 300 301 302 302 302 302 303 304 306 307 308 308 307 306 305 304 301 297 295 294 294
309 314 312 312 312 311 310 307 308 303 302 304 302 306 303 307 306 305 305 305 304 303 302 300 300 301 301 301 301 301 302 303 304 305 305 304 304 301 298 296 295 295 294 293
309 312 313 312 313 312 311 307 306 306 304 306 304 303 300 303 305 305 304 304 303 303 302 300 300 301 301 300 300 299 299 300 300 301 300 299 297 296 296 295 295 294 293 292
310 312 315 312 311 310 310 309 309 306 305 305 306 303 305 306 302 304 304 305 303 303 301 300 300 300 300 300 298 298 297 297 297 297 296 296 296 295 295 295 294 293 292 292
311 311 314 310 307 310 312 311 308 306 306 308 305 301 305 306 307 306 305 304 304 303 301 299 298 298 299 299 298 297 297 296 296 295 295 295 295 295 295 295 294 293 292 292
310 309 308 310 308 310 313 312 309 308 305 307 305 304 307 306 306 304 306 305 304 303 302 299 297 297 299 299 299 297 296 296 296 296 295 295 295 295 295 294 293 293 291 290
308 307 308 308 307 309 309 311 311 310 308 307 305 305 305 305 304 304 304 305 304 304 302 300 299 298 298 299 298 298 297 296 296 296 295 295 295 294 293 293 292 291 291 290
309 307 307 304 308 309 310 309 310 310 310 308 309 305 304 304 303 304 304 305 306 304 304 302 300 299 299 299 298 298 298 298 297 296 296 296 295 294 293 292 291 291 290 289
310 306 300 301 305 306 305 305 309 309 308 309 311 309 308 307 306 305 303 305 306 306 304 303 301 301 301 300 300 299 300 299 297 297 296 295 295 294 293 292 291 291 290 289
310 308 304 303 300 307 306 304 307 309 309 308 308 307 307 308 308 305 304 305 305 305 304 303 303 303 303 303 302 301 300 300 299 297 297 296 295 294 292 291 291 290 289 289
311 308 305 307 298 304 306 305 305 308 309 307 308 309 308 307 307 306 304 304 307 306 305 305 306 305 305 304 303 302 301 300 299 298 298 297 296 294 293 291 291 290 289 289
311 310 308 292 303 305 303 304 303 305 308 305 306 307 307 305 310 309 305 303 304 305 306 305 306 305 305 306 305 303 302 300 300 300 299 298 296 295 293 293 291 290 289 290
311 310 311 309 298 302 301 301 302 306 308 298 301 303 303 307 307 305 304 304 304 304 305 306 305 305 306 306 305 303 302 301 303 301 300 298 296 295 294 292 291 290 289 288
313 314 310 301 302 307 299 302 305 303 298 297 299 301 303 303 301 301 301 300 299 300 301 302 302 302 302 303 304 303 301 303 301 299 298 297 296 294 292 291 291 289 288 287
311 310 308 307 307 302 297 302 299 296 296 297 298 301 300 298 299 297 296 295 295 296 298 300 301 301 301 302 302 301 301 299 298 297 296 295 293 293 292 291 290 288 287 286
304 299 307 303 301 302 299 298 298 297 297 295 298 300 298 300 296 297 294 292 290 291 293 295 296 296 297 298 298 299 298 297 295 294 294 294 293 293 292 291 289 289 287 285
303 300 299 302 297 296 300 298 297 296 294 294 295 295 297 297 297 295 292 290 289 290 292 293 294 293 293 294 295 295 295 294 294 294 293 293 293 292 291 290 289 288 288 288
299 302 303 304 299 297 302 295 296 294 294 292 293 292 287 288 289 286 285 288 290 291 291 292 293 293 292 293 294 293 292 292 292 292 292 292 291 290 289 288 287 286 286 285
Wind_Speed
4 4 6 7 5 5 7 5 5 2 1 3 5 3 8 6 4 7 8 8 7 5 6 13 25 29 31 28 26 23 22 20 19 19 18 15 12 8 6 5 4 3 4 3
5 14 6 7 6 7 7 6 3 3 2 2 3 9 8 7 7 8 10 9 7 5 6 8 23 29 29 26 21 19 18 19 19 19 17 12 15 9 8 7 7 6 5 4
7 3 8 7 4 5 2 7 5 6 2 3 1 7 6 7 7 5 8 6 6 10 11 7 14 22 22 22 21 19 17 17 19 19 18 15 13 14 11 10 9 8 6 4
2 3 6 6 6 5 5 4 7 10 5 4 1 5 5 5 9 7 10 9 9 10 7 8 12 17 20 19 18 17 17 17 16 18 20 21 18 15 12 12 10 8 6 4
2 1 5 3 5 6 3 6 6 4 5 3 1 1 7 2 6 8 8 8 6 8 11 12 15 19 18 17 17 15 15 15 16 17 17 17 14 11 16 14 11 8 6 5
3 4 3 2 4 6 11 9 9 5 3 2 6 6 5 5 7 3 2 5 7 7 6 8 15 19 18 16 14 13 13 14 15 16 17 17 18 19 20 16 12 9 7 5
2 6 5 1 9 6 6 7 3 3 2 5 3 2 6 5 7 6 9 8 7 5 6 8 10 19 19 16 14 13 13 15 15 16 17 18 17 18 17 15 12 10 7 5
6 1 4 3 3 8 4 6 6 7 4 3 1 7 6 3 2 2 6 6 6 5 5 6 11 18 17 15 14 14 15 16 16 17 17 17 18 17 15 13 12 9 7 6
5 2 2 3 1 3 4 4 5 6 3 2 4 6 8 3 2 1 5 5 6 6 7 8 13 16 16 16 17 17 18 18 17 17 18 18 17 16 16 14 12 10 8 7
6 5 2 0 1 3 3 8 4 3 4 4 4 5 5 6 9 6 7 8 7 5 7 7 11 14 14 16 17 17 17 17 18 18 18 18 17 15 15 13 12 10 8 6
4 3 2 4 4 6 2 2 3 4 5 5 2 6 6 6 10 11 10 8 8 8 8 7 11 14 15 16 18 18 18 19 19 19 19 18 18 16 15 13 11 10 8 7
3 4 4 3 0 2 2 5 5 4 5 2 3 5 2 5 8 8 8 8 7 6 8 7 13 16 18 19 20 21 20 21 20 19 19 18 17 16 15 13 12 10 8 7
5 1 5 3 5 3 5 4 4 4 2 6 5 5 3 2 2 5 8 8 7 7 7 7 11 17 21 22 22 22 23 23 22 21 20 20 19 17 15 14 13 11 10 8
6 4 6 11 4 8 7 10 7 5 3 4 6 3 4 7 7 6 6 7 8 9 9 7 7 14 22 24 25 25 25 25 24 24 23 22 20 18 16 15 14 12 10 9
5 4 4 1 4 6 7 15 20 16 12 9 7 10 8 9 11 9 8 6 7 8 8 9 9 12 20 23 25 26 26 27 27 26 25 23 20 18 17 17 15 13 12 10
2 3 3 2 2 2 3 11 17 21 13 10 4 8 6 6 4 6 9 8 10 10 10 10 10 15 20 24 28 29 30 31 30 28 28 23 22 21 20 19 18 16 14 12
6 5 2 4 3 3 6 9 12 9 13 15 18 18 6 5 8 8 8 11 12 11 13 12 14 21 22 28 31 33 34 32 31 31 27 25 24 24 23 21 20 19 17 15
5 5 2 3 2 5 3 2 11 16 9 19 13 7 14 17 16 9 9 11 12 10 10 11 14 18 27 30 31 31 31 32 33 31 29 27 27 27 25 24 24 21 20 18
6 4 3 4 4 5 4 5 7 9 14 16 17 18 12 3 2 7 8 9 14 14 14 19 27 31 30 30 30 29 29 29 29 32 32 31 30 30 29 28 27 25 22 20
8 7 2 3 5 8 5 2 4 5 7 8 16 20 16 7 8 11 8 7 9 12 16 22 26 26 25 29 29 30 29 27 31 34 34 30 31 32 32 31 29 26 24 21
4 4 9 4 3 7 6 3 2 6 6 3 2 7 8 9 6 3 4 3 6 13 20 20 21 25 27 29 29 30 30 31 34 31 28 28 31 32 32 29 26 25 23 21
8 5 4 3 1 8 6 4 7 4 1 1 2 2 5 3 4 4 4 4 5 6 6 10 16 19 17 20 25 28 28 30 27 24 22 25 28 28 27 25 24 24 23 23
3 4 3 7 6 3 7 3 5 5 3 1 2 3 3 6 4 5 5 6 5 6 6 6 8 11 10 12 16 21 22 18 17 18 18 19 21 23 23 25 25 25 25 26
2 3 2 3 4 6 6 4 2 4 3 3 3 3 4 4 6 5 5 4 4 7 8 8 7 7 2 3 7 12 12 10 9 11 14 15 19 22 24 25 26 27 28 28
3 3 2 5 5 5 9 6 4 3 3 3 4 4 5 6 4 5 4 4 6 9 10 9 8 7 5 1 1 5 8 10 11 11 14 17 21 24 26 28 28 29 30 30
5 6 3 4 4 3 7 4 7 9 7 8 7 5 1 5 6 4 5 5 9 11 9 8 6 5 3 2 2 4 6 8 11 15 18 21 23 24 24 26 27 27 28 27
Wind_Direction
221 189 193 178 171 152 144 133 128 36 323 135 195 218 232 249 253 221 228 231 219 218 138 160 171 171 164 166 168 173 174 172 176 176 173 165 153 144 138 134 124 125 123 132
108 221 197 169 161 131 138 126 100 42 8 110 151 258 244 239 238 216 215 229 203 155 139 143 148 158 163 163 167 169 175 175 179 184 180 175 160 145 140 135 129 118 117 112
165 202 140 143 164 137 115 137 169 153 131 34 51 297 254 252 236 219 227 218 185 176 169 169 172 167 166 166 172 175 175 176 182 185 190 167 157 147 146 143 133 126 126 119
186 347 150 154 180 136 155 157 140 133 123 191 179 262 283 241 248 219 228 208 193 176 165 175 178 176 174 171 174 178 174 175 175 183 192 188 175 166 173 157 142 134 125 119
160 21 154 152 181 145 167 122 116 96 94 110 222 81 266 266 251 245 234 218 163 185 180 178 174 178 175 171 170 172 172 173 175 177 186 186 187 184 161 157 150 141 129 113
352 304 335 129 59 134 145 89 51 51 57 313 197 167 259 199 219 237 175 143 151 154 160 148 173 168 161 165 168 171 173 173 181 186 190 198 185 168 162 160 157 145 133 119
13 321 312 277 88 2 121 101 29 356 357 230 15 204 254 244 245 215 186 168 166 151 148 154 148 160 165 165 168 172 173 171 176 180 184 185 185 176 169 165 162 154 144 129
151 199 202 325 138 168 160 150 151 184 196 222 40 230 243 271 314 90 132 143 150 154 149 153 163 167 168 171 173 174 173 173 175 177 177 177 176 174 170 167 164 161 158 149
148 137 93 27 357 156 203 148 138 104 24 61 215 285 299 168 190 145 157 161 183 174 179 170 172 179 180 181 181 181 178 177 172 170 172 172 173 171 169 166 167 168 164 161
201 104 67 49 156 2 161 154 81 4 135 243 263 279 240 219 211 215 214 216 208 194 191 193 190 192 194 192 185 185 185 177 173 173 173 170 170 171 170 170 171 170 171 167
149 101 177 124 208 171 116 162 89 123 154 178 171 256 219 216 194 206 219 210 200 200 195 193 195 196 191 186 184 182 182 180 178 177 172 171 171 173 176 176 176 177 177 175
177 104 122 173 250 234 186 193 152 155 212 216 153 276 286 262 201 184 209 209 202 190 190 189 183 180 180 183 185 187 185 185 184 179 176 176 178 181 183 183 184 185 184 186
186 153 110 36 342 289 202 183 155 127 84 195 149 248 337 349 146 194 189 202 199 187 187 187 179 183 187 190 191 191 191 191 186 185 184 186 189 190 189 191 192 192 195 200
113 158 174 194 180 150 194 199 198 166 163 154 221 245 249 236 225 216 209 199 194 190 193 184 185 194 195 196 197 197 197 196 192 192 195 197 197 197 198 200 200 200 200 204
142 158 171 219 223 165 172 192 203 209 202 197 202 203 233 214 213 206 201 196 194 199 195 191 194 199 199 200 205 206 205 200 200 201 203 205 203 203 204 205 204 204 207 209
171 177 120 351 54 104 237 215 209 213 217 244 281 250 243 256 227 172 210 192 204 200 205 197 197 197 201 201 206 208 209 207 207 209 211 209 207 208 208 208 207 209 210 210
150 129 92 237 352 74 301 212 202 210 211 207 226 229 230 238 229 225 205 202 208 205 203 197 200 203 203 205 208 209 211 210 211 215 216 213 212 212 211 208 209 212 211 212
158 121 88 142 45 249 258 324 197 203 213 223 240 221 219 230 238 224 207 192 208 207 206 209 203 207 213 215 212 214 212 212 215 217 218 216 215 215 212 211 213 214 214 217
180 117 126 160 207 302 289 203 164 176 243 222 229 237 231 226 223 258 217 202 207 204 203 204 208 214 214 211 212 211 212 215 216 221 221 219 218 216 212 213 215 216 217 220
162 187 146 129 167 212 238 236 157 119 289 234 212 229 230 143 233 245 194 198 211 203 202 209 213 213 211 211 209 208 213 213 219 225 227 225 224 222 217 218 216 218 222 230
165 172 197 166 233 284 244 220 174 114 235 325 253 227 168 196 224 199 151 157 202 208 208 211 208 207 212 212 206 208 215 218 231 234 236 234 229 227 225 222 220 222 226 230
192 177 170 110 124 266 158 80 182 204 230 231 5 28 188 181 139 142 122 131 135 122 134 189 198 208 212 212 207 210 217 232 238 242 245 241 232 228 225 222 223 223 226 229
231 213 192 186 202 244 224 187 179 167 171 118 81 44 130 134 152 134 118 109 106 103 106 118 181 180 192 202 210 219 230 241 250 251 246 236 226 222 221 221 221 220 224 228
266 67 265 39 267 248 250 263 191 221 155 148 113 100 133 139 143 95 77 72 73 57 58 68 86 87 100 248 249 249 255 259 254 237 231 227 221 218 220 223 226 226 225 227
179 93 165 274 293 304 280 220 191 168 131 124 120 117 131 125 101 103 95 81 73 71 71 70 69 76 79 80 303 284 273 258 249 241 232 227 226 223 223 227 230 232 240 241
182 174 169 220 206 215 298 355 170 186 191 184 152 130 60 122 134 109 98 85 88 88 84 81 69 65 53 14 324 281 268 253 248 243 236 233 231 230 231 235 238 241 248 251